TimeEST,TemperatureF,Dew PointF,Humidity,Sea Level PressureIn,VisibilityMPH,Wind Direction,Wind SpeedMPH,Gust SpeedMPH,PrecipitationIn,Events,Conditions,WindDirDegrees,DateUTC
12:15 AM,32.7,24.8,73,30.14,10.0,Calm,Calm,-,N/A,,Clear,0,2013-02-09 05:15:00
12:35 AM,29.3,25.5,86,30.14,10.0,Calm,Calm,-,N/A,,Clear,0,2013-02-09 05:35:00
12:55 AM,28.9,25.0,85,30.13,10.0,Calm,Calm,-,N/A,,Clear,0,2013-02-09 05:55:00
1:15 AM,29.7,25.5,85,30.14,10.0,Calm,Calm,-,N/A,,Clear,0,2013-02-09 06:15:00
1:35 AM,28.4,25.5,89,30.14,10.0,Calm,Calm,-,N/A,,Clear,0,2013-02-09 06:35:00
1:55 AM,27.9,25.5,91,30.13,10.0,Calm,Calm,-,N/A,,Clear,0,2013-02-09 06:55:00
2:15 AM,28.0,25.9,92,30.13,10.0,Calm,Calm,-,N/A,,Clear,0,2013-02-09 07:15:00
2:35 AM,26.6,24.8,93,30.14,10.0,Calm,Calm,-,N/A,,Clear,0,2013-02-09 07:35:00
2:55 AM,26.6,25.0,94,30.15,10.0,Calm,Calm,-,N/A,,Clear,0,2013-02-09 07:55:00
3:15 AM,26.1,24.6,94,30.16,10.0,Calm,Calm,-,N/A,,Clear,0,2013-02-09 08:15:00
3:35 AM,26.4,24.8,94,30.17,10.0,Calm,Calm,-,N/A,,Clear,0,2013-02-09 08:35:00
3:55 AM,25.7,24.1,94,30.17,10.0,WSW,3.5,-,N/A,,Clear,240,2013-02-09 08:55:00
4:15 AM,26.1,22.8,88,30.18,10.0,Calm,Calm,-,N/A,,Clear,0,2013-02-09 09:15:00
4:35 AM,25.5,22.6,89,30.18,10.0,Calm,Calm,-,N/A,,Clear,0,2013-02-09 09:35:00
4:55 AM,25.9,24.3,94,30.19,10.0,Calm,Calm,-,N/A,,Clear,0,2013-02-09 09:55:00
5:15 AM,24.6,22.6,92,30.19,10.0,Calm,Calm,-,N/A,,Clear,0,2013-02-09 10:15:00
5:35 AM,23.9,22.5,94,30.20,10.0,Calm,Calm,-,N/A,,Clear,0,2013-02-09 10:35:00
5:55 AM,24.8,22.6,91,30.21,10.0,Calm,Calm,-,N/A,,Clear,0,2013-02-09 10:55:00
6:15 AM,23.0,21.6,94,30.23,10.0,Calm,Calm,-,N/A,,Clear,0,2013-02-09 11:15:00
6:35 AM,23.5,22.1,94,30.23,10.0,Calm,Calm,-,N/A,,Clear,0,2013-02-09 11:35:00
6:55 AM,23.2,22.1,96,30.24,10.0,Calm,Calm,-,N/A,,Clear,0,2013-02-09 11:55:00
7:15 AM,24.3,22.8,94,30.25,10.0,South,3.5,-,N/A,,Clear,170,2013-02-09 12:15:00
7:35 AM,30.7,24.3,77,30.27,10.0,SSW,6.9,-,N/A,,Clear,200,2013-02-09 12:35:00
7:55 AM,31.5,23.7,73,30.28,10.0,Calm,Calm,-,N/A,,Clear,0,2013-02-09 12:55:00
8:15 AM,29.1,26.1,88,30.29,10.0,Calm,Calm,-,N/A,,Clear,0,2013-02-09 13:15:00
8:35 AM,33.1,25.3,73,30.30,10.0,Calm,Calm,-,N/A,,Clear,0,2013-02-09 13:35:00
8:55 AM,35.2,25.5,68,30.31,10.0,SSW,3.5,-,N/A,,Clear,210,2013-02-09 13:55:00
9:15 AM,37.4,23.4,57,30.31,10.0,WSW,3.5,-,N/A,,Clear,240,2013-02-09 14:15:00
9:35 AM,37.9,23.9,57,30.32,10.0,WNW,3.5,-,N/A,,Clear,290,2013-02-09 14:35:00
9:55 AM,39.6,21.9,49,30.32,10.0,WSW,4.6,-,N/A,,Clear,250,2013-02-09 14:55:00
10:15 AM,41.0,22.6,48,30.33,10.0,West,4.6,-,N/A,,Clear,270,2013-02-09 15:15:00
10:35 AM,42.4,23.0,46,30.33,10.0,West,3.5,-,N/A,,Clear,280,2013-02-09 15:35:00
10:55 AM,44.2,21.6,41,30.33,10.0,SW,4.6,-,N/A,,Clear,230,2013-02-09 15:55:00
11:15 AM,45.9,20.3,36,30.33,10.0,Calm,Calm,-,N/A,,Clear,0,2013-02-09 16:15:00
11:35 AM,46.9,16.2,29,30.33,10.0,Calm,Calm,-,N/A,,Clear,0,2013-02-09 16:35:00
11:55 AM,48.4,17.8,30,30.32,10.0,Calm,Calm,-,N/A,,Clear,0,2013-02-09 16:55:00
12:15 PM,49.6,16.3,27,30.32,10.0,Calm,Calm,-,N/A,,Clear,0,2013-02-09 17:15:00
12:35 PM,51.3,17.2,26,30.32,10.0,Calm,Calm,-,N/A,,Clear,0,2013-02-09 17:35:00
12:55 PM,52.3,15.1,23,30.31,10.0,SSE,3.5,-,N/A,,Clear,160,2013-02-09 17:55:00
1:15 PM,53.6,15.6,22,30.30,10.0,Calm,Calm,-,N/A,,Clear,0,2013-02-09 18:15:00
1:35 PM,54.7,14.9,21,30.30,10.0,SE,4.6,-,N/A,,Clear,130,2013-02-09 18:35:00
1:55 PM,55.2,13.6,19,30.29,10.0,SE,4.6,-,N/A,,Clear,130,2013-02-09 18:55:00
2:15 PM,55.0,14.2,20,30.29,10.0,NW,3.5,-,N/A,,Clear,310,2013-02-09 19:15:00
2:35 PM,55.9,14.4,19,30.29,10.0,Calm,Calm,-,N/A,,Clear,0,2013-02-09 19:35:00
2:55 PM,56.5,13.1,18,30.28,10.0,Calm,Calm,-,N/A,,Clear,0,2013-02-09 19:55:00
3:15 PM,57.9,12.7,17,30.28,10.0,Calm,Calm,-,N/A,,Clear,0,2013-02-09 20:15:00
3:35 PM,58.1,12.6,17,30.27,10.0,ESE,3.5,-,N/A,,Clear,110,2013-02-09 20:35:00
3:55 PM,58.3,9.9,15,30.27,10.0,Calm,Calm,-,N/A,,Clear,0,2013-02-09 20:55:00
4:15 PM,58.8,9.0,14,30.27,10.0,SE,4.6,-,N/A,,Clear,130,2013-02-09 21:15:00
4:35 PM,58.8,8.1,13,30.27,10.0,Calm,Calm,-,N/A,,Clear,0,2013-02-09 21:35:00
4:55 PM,58.6,8.1,13,30.27,10.0,ESE,3.5,-,N/A,,Clear,120,2013-02-09 21:55:00
5:15 PM,57.9,10.0,15,30.27,10.0,Calm,Calm,-,N/A,,Clear,0,2013-02-09 22:15:00
5:35 PM,56.5,15.3,20,30.28,10.0,Calm,Calm,-,N/A,,Clear,0,2013-02-09 22:35:00
5:55 PM,53.2,17.4,24,30.28,10.0,East,4.6,-,N/A,,Clear,90,2013-02-09 22:55:00
6:15 PM,47.5,24.3,40,30.29,10.0,East,3.5,-,N/A,,Clear,90,2013-02-09 23:15:00
6:35 PM,50.4,18.5,28,30.29,10.0,East,3.5,-,N/A,,Clear,100,2013-02-09 23:35:00
6:55 PM,45.0,25.7,47,30.30,10.0,East,3.5,-,N/A,,Clear,100,2013-02-09 23:55:00
7:15 PM,45.7,18.9,34,30.31,10.0,ESE,3.5,-,N/A,,Clear,110,2013-02-10 00:15:00
7:35 PM,41.4,23.0,48,30.32,10.0,ESE,4.6,-,N/A,,Clear,110,2013-02-10 00:35:00
7:55 PM,38.5,25.9,61,30.32,10.0,East,4.6,-,N/A,,Clear,100,2013-02-10 00:55:00
8:15 PM,39.7,24.1,54,30.33,10.0,ESE,3.5,-,N/A,,Clear,110,2013-02-10 01:15:00
8:35 PM,38.5,24.4,57,30.34,10.0,East,3.5,-,N/A,,Clear,100,2013-02-10 01:35:00
8:55 PM,36.3,24.3,62,30.34,10.0,Calm,Calm,-,N/A,,Clear,0,2013-02-10 01:55:00
9:15 PM,35.1,23.7,63,30.34,10.0,Calm,Calm,-,N/A,,Clear,0,2013-02-10 02:15:00
9:35 PM,33.8,23.7,67,30.36,10.0,Calm,Calm,-,N/A,,Clear,0,2013-02-10 02:35:00
9:55 PM,32.0,24.1,73,30.36,10.0,ENE,3.5,-,N/A,,Clear,60,2013-02-10 02:55:00
10:15 PM,33.3,24.3,70,30.36,10.0,Calm,Calm,-,N/A,,Clear,0,2013-02-10 03:15:00
10:35 PM,34.0,22.6,63,30.35,10.0,ENE,3.5,-,N/A,,Clear,70,2013-02-10 03:35:00
10:55 PM,36.0,23.9,62,30.36,10.0,North,3.5,-,N/A,,Clear,360,2013-02-10 03:55:00
11:15 PM,35.2,26.1,69,30.36,10.0,North,4.6,-,N/A,,Clear,350,2013-02-10 04:15:00
11:35 PM,33.1,25.7,74,30.36,10.0,North,3.5,-,N/A,,Clear,10,2013-02-10 04:35:00
11:55 PM,32.7,25.9,76,30.36,10.0,North,3.5,-,N/A,,Clear,360,2013-02-10 04:55:00